STARLINK-34337, 64223

Orbit data source: Space-Track

STARLINK-34337, 64223 is a payload satellite owned by SpaceX/Seattle (US) in LEO that was launched on Sat, 31 May 2025 UTC via an FALCON 9 launch vehicle from the Air Force Western Test Range (AFWTR). Payload-class satellites include a variety of spacecraft equipped with specific instruments for various scientific and technological missions. These include communications satellites like Starlink; space stations such as the ISS; scientific satellites like the Hubble; Earth observation satellites from companies like Planet Labs, Umbra, and HawkEye 360; GPS; miniature CubeSats for education and research; and military/defense satellites.

Loading next visibility...
Identifier
64223, 2025-117W
Orbit
LEO
Country
Flag of USUS
Related business
Manufacturer
SpaceX/Seattle
Mission
Operational Commercial Communications
Bus & Motor
STARLINK V2MO, Unknown motor
Mass
575 kg wet, ~530 kg dry
Launch date (UTC)
2025-05-31 (1 year ago)
Launch vehicle
FALCON 9
Launch site
Air Force Western Test Range (AFWTR)
Object type
Payload
Rocket body
Debris
Shape & HBR
Box + 1 Pan, 17.7 m
Radar Cross Section
41.120 m², Large (>1 m²)

Expand to show TLE details & history
Last TLE update: 11 hours ago

TLE from 11 hours ago
0 STARLINK-34337
1 64223U 25117W   26235.79492605  .00028272  00000-0  84445-3 0  9992
2 64223  53.1586 341.0536 0001172  88.3254 271.7883 15.34410250 70143
Epoch: 2026-08-23T19:04Z
TLE epoch observation values (Epoch: 2026-08-23T19:04:41.610Z)
Latitude
-0.00002°
Longitude
82.79435°
Altitude
463.549 km
Speed
7.636 km/s
True Right ascension
22h 44m 12s
True Declination
0° 00' 00"
Sunlit
Object was in full shadow at epoch
Visualization orbit readout
Latitude
Unknown
Longitude
Unknown
Altitude
Unknown
Speed
Unknown
Apparent Right ascension
Unknown
Apparent Declination
Unknown
Sunlit
N/A
Visualization observer readout
Local Sidereal Time
21:42:59
Azimuth
Unknown
Elevation
Unknown
Doppler factor
Unknown
Orbital elements
Apogee altitude
463.732 km
Perigee altitude
462.128 km
Semi-major axis
6,841.067 km
Eccentricity
0.00012
Inclination
53.1586°
RAAN
341.0536°
Arg. of periapsis
88.3254°
True anomaly
271.77488°
Mean anomaly
271.7883°
Eccentric anomaly
271.78159°
Mean motion
3.83581 °/min
Orbital period
93.85 mins
BSTAR
0.00084445
Loading maneuver chart data...
Computing Atmospheric mass density...
Loading historical data...
Loading historical data...
Loading historical data...
Loading historical data...
Loading historical data...
Loading historical data...
Loading historical data...

Documentation

Showing up to 5 results
|